Date String (YYYY-MM-DD hh:mm:ss) UTC,Instrument flags,Ambient pressure (hPa),Sample flow (lpm),Bypass flow (lpm),Sample temperature (°C),Ambient temperature (°C),ASC tube jacket temperature (°C),LED temperature (°C),Box temperature (°C),Sample RH (%),Span deviation,Mass concentration (μg/m³),Mass concentration (μg/m³),Mass concentration (μg/m³)
DateTimeUTC,F1_M11,P_M11,Q1_M11,Q2_M11,T1_M11,T2_M11,T3_M11,T4_M11,T5_M11,U1_M11,ZSPAN_M11,X0_M11,X2_M11,X1_M11
2022-03-26 21:00:00,,0822.3,5.00,0.00,29.8,28.5,00.0,38.7,31.5,07.5,0000.0,0007.36,0002.95,0001.27
2022-03-26 21:01:00,,0822.3,5.01,0.00,29.8,28.6,00.0,38.7,31.6,07.5,0000.0,0007.48,0002.97,0001.28
2022-03-26 21:02:00,,0822.3,4.99,0.00,29.8,28.7,00.0,38.7,31.6,07.5,0000.0,0007.55,0002.99,0001.26
2022-03-26 21:03:00,,0822.3,4.99,0.00,29.9,28.7,00.0,38.8,31.6,07.4,0000.0,0007.68,0003.07,0001.26
2022-03-26 21:04:00,,0822.3,5.00,0.00,29.9,28.8,00.0,38.8,31.7,07.4,0000.0,0007.84,0003.11,0001.25
2022-03-26 21:05:00,,0822.4,5.00,0.00,29.9,28.9,00.0,38.8,31.7,07.6,0000.0,0007.44,0003.08,0001.24
2022-03-26 21:06:00,,0822.3,5.00,0.00,29.9,28.9,00.0,38.8,31.7,07.7,0000.0,0007.03,0003.00,0001.25
2022-03-26 21:07:00,,0822.4,5.01,0.00,30.0,29.0,00.0,38.8,31.7,07.6,0000.0,0007.09,0003.05,0001.26
2022-03-26 21:08:00,,0822.3,5.00,0.00,30.0,29.0,00.0,38.8,31.7,07.6,0000.0,0007.05,0003.06,0001.28
2022-03-26 21:09:00,,0822.3,4.98,0.00,30.0,29.1,00.0,38.9,31.8,07.5,0000.0,0006.95,0003.00,0001.29
2022-03-26 21:10:00,,0822.3,5.01,0.00,30.0,29.1,00.0,38.9,31.8,07.5,0000.0,0006.92,0002.94,0001.26
2022-03-26 21:11:00,,0822.3,5.00,0.00,30.1,29.1,00.0,38.9,31.9,07.7,0000.0,0006.73,0002.86,0001.24
2022-03-26 21:12:00,,0822.3,5.02,0.00,30.1,29.2,00.0,38.9,31.9,07.5,0000.0,0006.43,0002.83,0001.22
2022-03-26 21:13:00,,0822.3,4.99,0.00,30.1,29.2,00.0,38.9,31.9,07.2,0000.0,0006.30,0002.83,0001.23
2022-03-26 21:14:00,,0822.3,5.01,0.00,30.2,29.2,00.0,39.0,31.9,07.5,0000.0,0006.34,0002.71,0001.23
2022-03-26 21:15:00,,0822.3,4.98,0.00,30.2,29.1,00.0,39.0,31.9,07.6,0000.0,0005.97,0002.59,0001.21
2022-03-26 21:16:00,,0822.2,5.01,0.00,30.1,27.3,00.0,39.0,31.5,07.8,0000.0,0005.71,0002.51,0001.21
2022-03-26 21:17:00,,0822.2,5.00,0.00,29.9,25.4,00.0,39.0,31.1,07.6,0000.0,0005.71,0002.48,0001.20
2022-03-26 21:18:00,,0822.3,5.01,0.00,29.8,25.6,00.0,38.9,31.1,07.7,0000.0,0005.64,0002.47,0001.20
2022-03-26 21:19:00,,0822.1,5.01,0.00,29.7,26.1,00.0,38.9,31.2,07.7,0000.0,0005.54,0002.48,0001.19
2022-03-26 21:20:00,,0822.2,4.99,0.00,29.7,26.5,00.0,38.8,31.2,07.8,0000.0,0005.53,0002.50,0001.19
2022-03-26 21:21:00,,0822.2,5.00,0.00,29.7,27.0,00.0,38.8,31.3,07.5,0000.0,0005.87,0002.59,0001.22
2022-03-26 21:22:00,,0822.2,5.01,0.00,29.7,27.4,00.0,38.7,31.3,07.6,0000.0,0006.17,0002.60,0001.23
2022-03-26 21:23:00,,0822.2,4.99,0.00,29.7,27.7,00.0,38.7,31.3,07.6,0000.0,0007.11,0002.59,0001.23
2022-03-26 21:24:00,,0822.2,5.01,0.00,29.7,27.9,00.0,38.7,31.4,07.9,0000.0,0007.06,0002.55,0001.21
2022-03-26 21:25:00,,0822.2,4.99,0.00,29.7,28.1,00.0,38.7,31.4,07.4,0000.0,0007.16,0002.63,0001.22
2022-03-26 21:26:00,,0822.2,5.02,0.00,29.7,28.3,00.0,38.7,31.5,07.4,0000.0,0007.77,0002.69,0001.23
2022-03-26 21:27:00,,0822.2,4.99,0.00,29.8,28.5,00.0,38.7,31.5,07.7,0000.0,0007.87,0002.72,0001.24
2022-03-26 21:28:00,,0822.2,5.00,0.00,29.8,28.6,00.0,38.7,31.6,07.7,0000.0,0007.93,0002.79,0001.24
2022-03-26 21:29:00,,0822.1,5.01,0.00,29.8,28.7,00.0,38.7,31.6,07.4,0000.0,0007.95,0002.77,0001.22
2022-03-26 21:30:00,,0822.1,4.99,0.00,29.9,28.8,00.0,38.7,31.7,07.4,0000.0,0007.92,0002.72,0001.22
2022-03-26 21:31:00,,0822.2,4.99,0.00,29.9,28.8,00.0,38.7,31.7,07.4,0000.0,0007.84,0002.66,0001.20
2022-03-26 21:32:00,,0822.1,5.02,0.00,29.9,28.9,00.0,38.8,31.7,07.4,0000.0,0007.70,0002.61,0001.18
2022-03-26 21:33:00,,0822.2,5.00,0.00,29.9,29.0,00.0,38.8,31.7,07.5,0000.0,0008.21,0002.61,0001.18
2022-03-26 21:34:00,,0822.1,5.00,0.00,30.0,29.0,00.0,38.8,31.7,07.9,0000.0,0007.73,0002.60,0001.18
2022-03-26 21:35:00,,0822.1,5.01,0.00,30.0,29.1,00.0,38.8,31.8,07.8,0000.0,0007.67,0002.60,0001.19
2022-03-26 21:36:00,,0822.1,5.00,0.00,30.0,29.1,00.0,38.8,31.8,07.5,0000.0,0007.61,0002.57,0001.20
2022-03-26 21:37:00,,0822.1,4.98,0.00,30.0,29.2,00.0,38.9,31.8,07.5,0000.0,0007.03,0002.57,0001.19
2022-03-26 21:38:00,,0822.1,5.02,0.00,30.0,28.2,00.0,38.9,31.6,07.5,0000.0,0006.86,0002.60,0001.19
2022-03-26 21:39:00,,0822.1,5.00,0.00,29.9,26.0,00.0,38.9,31.2,07.4,0000.0,0007.55,0002.54,0001.18
2022-03-26 21:40:00,,0822.2,4.99,0.00,29.8,25.5,00.0,38.8,31.1,07.4,0000.0,0007.61,0002.55,0001.18
2022-03-26 21:41:00,,0822.1,5.01,0.00,29.7,25.9,00.0,38.8,31.1,07.8,0000.0,0007.67,0002.63,0001.20
2022-03-26 21:42:00,,0822.1,4.99,0.00,29.6,26.4,00.0,38.7,31.1,07.9,0000.0,0007.81,0002.69,0001.20
2022-03-26 21:43:00,,0822.1,5.01,0.00,29.6,26.9,00.0,38.7,31.2,07.4,0000.0,0007.93,0002.72,0001.21
2022-03-26 21:44:00,,0822.2,4.98,0.00,29.6,27.3,00.0,38.7,31.3,07.5,0000.0,0007.66,0002.77,0001.22
2022-03-26 21:45:00,,0822.1,5.01,0.00,29.6,27.6,00.0,38.6,31.3,07.4,0000.0,0007.53,0002.77,0001.21
2022-03-26 21:46:00,,0822.1,4.99,0.00,29.6,27.9,00.0,38.6,31.4,07.7,0000.0,0007.67,0002.85,0001.22
2022-03-26 21:47:00,,0822.1,5.01,0.00,29.7,28.2,00.0,38.6,31.4,07.8,0000.0,0007.54,0002.80,0001.21
2022-03-26 21:48:00,,0822.0,4.99,0.00,29.7,28.4,00.0,38.6,31.5,07.8,0000.0,0007.58,0002.85,0001.22
2022-03-26 21:49:00,,0822.0,5.00,0.00,29.7,28.5,00.0,38.6,31.5,07.4,0000.0,0007.94,0002.76,0001.22
2022-03-26 21:50:00,,0821.9,5.01,0.00,29.8,28.6,00.0,38.7,31.5,07.3,0000.0,0007.68,0002.69,0001.24
2022-03-26 21:51:00,,0821.9,4.99,0.00,29.8,28.7,00.0,38.7,31.6,07.5,0000.0,0007.49,0002.71,0001.24
2022-03-26 21:52:00,,0821.9,4.99,0.00,29.8,28.8,00.0,38.7,31.6,07.3,0000.0,0007.38,0002.62,0001.24
2022-03-26 21:53:00,,0821.9,5.01,0.00,29.9,28.9,00.0,38.7,31.7,07.3,0000.0,0007.54,0002.66,0001.24
2022-03-26 21:54:00,,0821.9,4.98,0.00,29.9,29.0,00.0,38.7,31.7,07.3,0000.0,0007.58,0002.69,0001.23
2022-03-26 21:55:00,,0821.9,5.02,0.00,29.9,29.0,00.0,38.7,31.7,07.4,0000.0,0007.43,0002.64,0001.25
2022-03-26 21:56:00,,0822.0,5.00,0.00,29.9,29.1,00.0,38.8,31.8,07.2,0000.0,0007.69,0002.68,0001.28
2022-03-26 21:57:00,,0822.1,5.01,0.00,30.0,29.1,00.0,38.8,31.7,07.4,0000.0,0008.20,0002.68,0001.29
2022-03-26 21:58:00,,0822.1,5.00,0.00,30.0,28.6,00.0,38.8,31.7,07.5,0000.0,0008.22,0002.68,0001.29
2022-03-26 21:59:00,,0822.0,5.00,0.00,29.9,26.4,00.0,38.8,31.3,07.5,0000.0,0008.22,0002.67,0001.29
